Location: Regensburg
(48.4565°N, 10.3217°E)
Time: 10:34:23
(UTC+01:00)

ISS - Pass Details

Date: 13 November 2017
Orbit: 402 x 407 km, 51.6° (Epoch: 24 November)

Event Time Altitude Azimuth Distance (km) Brightness Sun altitude
Exits shadow 05:02:31 41° 74° (ENE) 598 -2.6 -23.3°
Drops below altitude 10° 05:04:52 10° 96° (E) 1,455 0.1 -22.9°
Sets 05:06:58 0° 100° (E) 2,313 1.5 -22.6°
